Flag for U.S.A. Weather past 2 weeks in Paramus, New Jersey, U.S.A.

Now
51 °F

Clear.


Feels Like: 49 °F
Forecast: 42 / 60 °F
Wind: 6 mph from Northeast

Location: Teterboro Airport


UV Index: 5 (Moderate)

Visibility: 10 mi


Pressure: 30.39 "Hg

Humidity: 38%

Dew point: 26 °F

Location of ParamusLocation

Historic Weather in Paramus

°F

Paramus temperature yesterday

Maximum temperature yesterday: 68 °F (at 3:51 PM)
Minimum temperature yesterday: 40 °F (at 5:51 AM)
Average temperature yesterday: 56 °F

Past Weeks' High & Low Weather Summary

 TemperatureHumidityPressure
High81 °F (Apr 13, 2:51 PM)93% (Apr 8, 1:51 AM)30.73 "Hg (Apr 8, 1:51 AM)
Low33 °F (Apr 16, 5:51 AM)17% (Apr 6, 5:51 PM)29.39 "Hg (Apr 8, 12:58 PM)
Average53 °F52%30.06 "Hg
* Reported Apr 5 1:51 AM — Apr 20 1:51 AM, Paramus, Weather by CustomWeather, © 2014

Note: Actual official high and low records may vary slightly from our data, if they occured in-between our weather recording intervals... More about our weather records

Advertising

Historic Weather Conditions — Data for Previous 24 hours

 ConditionsComfort  
Time TempWeatherWind HumidityBarometerVisibility
1:51 AM
Apr 20
52 °FClear.7 mph35%30.37 "Hg10 mi
12:51 AM54 °FClear.8 mph33%30.36 "Hg10 mi
11:51 PM
Apr 19
55 °FClear.7 mph30%30.34 "Hg10 mi
10:51 PM57 °FClear.8 mph27%30.34 "Hg10 mi
9:51 PM59 °FClear.6 mph24%30.32 "Hg10 mi
8:51 PM61 °FClear.8 mph22%30.28 "Hg10 mi
7:51 PM63 °FSunny.5 mph19%30.25 "Hg10 mi
6:51 PM66 °FSunny.6 mph17%30.24 "Hg10 mi
5:51 PM67 °FSunny.8 mph19%30.23 "Hg10 mi
4:51 PM68 °FSunny.7 mph18%30.22 "Hg10 mi
3:51 PM68 °FSunny.6 mph19%30.21 "Hg10 mi
2:51 PM67 °FSunny.5 mph20%30.22 "Hg10 mi
1:51 PM65 °FSunny.8 mph26%30.22 "Hg10 mi
12:51 PM63 °FSunny.13 mph25%30.24 "Hg10 mi
11:51 AM63 °FSunny.16 mph23%30.26 "Hg10 mi
10:51 AM61 °FSunny.15 mph27%30.26 "Hg10 mi
9:51 AM58 °FSunny.16 mph35%30.26 "Hg10 mi
8:51 AM53 °FSunny.6 mph55%30.26 "Hg10 mi
7:51 AM45 °FSunny.No wind68%30.26 "Hg10 mi
6:51 AM42 °FClear.3 mph73%30.24 "Hg10 mi
5:51 AM40 °FClear.3 mph77%30.23 "Hg10 mi
4:51 AM42 °FClear.5 mph71%30.22 "Hg10 mi
3:51 AM42 °FClear.3 mph71%30.22 "Hg10 mi
Weather by CustomWeather, © 2014

See weather overview